Hourly Data Report for September 08, 2017

All times are specified in Local Standard Time (LST). Add 1 hour to adjust for Daylight Saving Time where and when it is observed.

ALERT CLIMATE
NUNAVUT

82°30'00.000" N
62°20'00.000" W
65.40 m
2400305
71355
ZLT

Download Data

Hourly Data (September 2017)
Hourly Data Report for September 8, 2017
Temp Definition
°C
Dew Point Temp Definition
°C
Rel Hum Definition
%
Wind Dir Definition
10's deg

Wind Spd Definition
km/h
Visibility Definition
km
Stn Press Definition
kPa
Hmdx Definition


Wind Chill Definition


Weather Definition


TIME
00:00 -8.1 -10.6 82 11 1   100.69   -9 LegendNANA
01:00 -8.9 -11.6 81 5 3   100.71   -11 LegendNANA
02:00 -9.4 -11.1 87 25 3   100.72   -11 LegendNANA
03:00 -9.5 -11.5 85 20 2   100.72   -11 LegendNANA
04:00 -9.9 -12.5 81 26 8   100.72   -14 LegendNANA
05:00 -9.3 -12.3 79 28 11   100.69   -15 LegendNANA
06:00 -8.8 -12.4 75 27 11   100.66   -14 LegendNANA
07:00 -8.1 -12.1 73 23 8   100.64   -12 LegendNANA
08:00 -7.5 -11.5 73 10 3   100.59   -9 LegendNANA
09:00 -7.6 -11.2 76 10 6   100.57   -11 LegendNANA
10:00 -7.8 -11.3 76 26 4   100.53   -10 LegendNANA
11:00 -6.6 -11.3 69 35 2   100.49   -8 LegendNANA
12:00 -7.0 -10.7 75 3 2   100.46   -8 LegendNANA
13:00 -5.9 -10.8 68 30 1   100.41   -6 LegendNANA
14:00 -7.5 -11.1 75 23 2   100.35   -9 LegendNANA
15:00 -7.6 -10.4 80 12 3   100.30   -9 LegendNANA
16:00 -5.8 -12.3 60 22 8   100.26   -10 LegendNANA
17:00 -6.5 -12.7 62 24 8   100.21   -10 LegendNANA
18:00 -6.8 -12.8 62 28 16   100.14   -13 LegendNANA
19:00 -6.8 -13.1 61 24 10   100.09   -11 LegendNANA
20:00 -6.6 -12.8 61 28 2   100.04   -8 LegendNANA
21:00 -6.1 -12.0 63 25 6   99.98   -9 LegendNANA
22:00 -6.9 -12.7 63 23 4   99.95   -9 LegendNANA
23:00 -8.0 -13.4 65 28 8   99.89   -12 LegendNANA

Notes on Data Quality.

Legend

  • E = Estimated
  • M = Missing
  • NA = Not Available
  • ‡ = Partner data that is not subject to review by the National Climate Archives
Date modified: